Погода в Кислокане

Погода в Кислокане : погода сейчас, прогноз погоды и архив. Всё, что Вы хотите узнать о погоде в Кислокане!

Поиск расширенной информации на нашем сайте:

Другие новости

Новости СМИ2

Главная страница сайта

Новости сайта

03.07.2017

Напоминаем, что на нашем специализированном сайте Метеоцентр.Азия вы можете получить высокодетализированные автоматические прогнозы погоды по пунктам России, СНГ и мира в авиационном формате (включающие направление и скорость ветра, видимость, явления погоды, количество и форму облачности, нижнюю и верхнюю границу облачности).


Погода в Кислокане - сегодня

Время (UTC), дата Ветер
(°,м/с) 
Видим.   Явления Облачность Т
(°С)
Тd
(°С)
f(%) Тe
(°С)
Pmin
(гПа)
dP
(гПа)
Po
(мм)
O2
(г/м3)
Тmin Tmax R s Состояние
почвы
21 20.02.18 тихо ()   н/о    ясно 
-39.2 -42.5 71 -39  1026.5  0.1  747  353           
00 21.02.18 тихо ()   н/о    ясно 
-41.5 -45 69 -42  1027.6  0.7  747  357  -41.5    0.0  46  равномерный
сухой снег
100% 
03 21.02.18 240 (ЮЗ) 20000 м    ясно 
-36.2 -39.7 70 -37  1027  0.2  747  349  -42         
06 21.02.18 360 (С) 20000 м    ясно 
-26.9 -30.7 70 -28  1025.1  -0.8  747  336           
09 21.02.18 340 (С) 20000 м    ясно 
-24.7 -29.4 65 -25  1024.2  -0.6  746  332           
12 21.02.18 тихо ()   н/о    ясно 
-34.9 -37.7 75 -35  1024.7  -0.8  746  346    -24.2       
15 21.02.18 тихо ()   н/о  слаб. снег  10/5 2000 м средняя, верхняя 
[Ac trans|Cs]
-31.5 -34.5 75 -32  1022.8  -1.5  745  341           
18 21.02.18 тихо ()   н/о  {снег}  ясно 
-34.7 -37.7 74 -35  1021.8  -1.2  744  345           
21 21.02.18 тихо ()   н/о    ясно 
-36.7 -39.4 76 -37  1021.5  -0.6  743  348           
00 22.02.18 тихо ()   н/о  слаб. снег  10/3 2000 м средняя, верхняя 
[Ac trans|Cs]
-32.9 -35.8 75 -33  1020.9  -0.1  743  342  -37.4    0.0  46  равномерный
сухой снег
100% 
03 22.02.18 300 (СЗ) 4000 м  слаб. снег  10/4 2000 м средняя, верхняя 
[Ac trans|Cs]
-29.9 -33 74 -31  1019.9  -0.6  743  338           
06 22.02.18 220 (ЮЗ) 4000 м  слаб. снег  10/4 2000 м средняя, верхняя 
[Ac trans|Cs]
-22.6 -25.8 75 -23  1018.4  -0.6  742  328           
09 22.02.18 030 (СВ) 4000 м  слаб. снег  10/3 2000 м средняя, верхняя 
[Ac trans|Cs]
-19.6 -22.9 75 -20  1018.1  742  324           
12 22.02.18 350 (С) н/о  слаб. снег  10/3 2000 м средняя, верхняя 
[Ac trans|Cs]
-27.9 -31 75 -29  1019.5  0.5  743  335    -19.4  0.3     
15 22.02.18 020 (С) н/о  слаб. снег  10/4 2000 м средняя, верхняя 
[Ac trans|Cs]
-27.8 -31 74 -28  1019.5  743  335           
18 22.02.18 тихо ()   н/о  {снег}  3/3 2000 м средняя 
[Ac trans]
-30.9 -33.9 75 -31  1020.3  0.4  743  339           
21 22.02.18 тихо ()   н/о    1/1 2000 м средняя 
[Ac trans]
-36.3 -39 76 -36  1021.8  0.9  744  348           
00 23.02.18 тихо ()   н/о    1/1 2000 м средняя 
[Ac lent]
-38.8 -41.8 73 -39  1023.2  744  352  -39.2    0.3  46  равномерный
сухой снег
100% 
03 23.02.18 тихо ()   20000 м    ясно 
-32.6 -36.2 70 -33  1023.7  1.1  745  343  -39.7         
06 23.02.18 тихо ()   20000 м    ясно 
-25.6 -30.3 65 -26  1023.3  0.5  746  333           
09 23.02.18 тихо ()   20000 м    ясно 
-22.9 -27.7 65 -23  1024.1  1.1  746  330           
15 23.02.18 тихо ()   н/о  слаб. снег  10/3 2000 м средняя, верхняя 
[Ac trans|Cs]
-37 -39.8 75 -37  1029.1  1.2  749  351           
18 23.02.18 тихо ()   н/о  слаб. снег  10/1 2000 м средняя, верхняя 
[Ac trans|Cs]
-39.4 -42.9 69 -39  1030.7  1.3  750  355           
21 23.02.18 тихо ()   н/о  {снег}  ясно 
-41 -44.4 70 -41  1032.3  1.4  751  358           
00 24.02.18 270 (З) н/о  слаб. снег  10/5 2000 м средняя, верхняя 
[Ac trans|Cs]
-40.4 -43.9 69 -42  1032.8  0.6  751  357  -41.7    0.0  46  равномерный
сухой снег
100% 
Время (UTC), дата Ветер
(°,м/с) 
Видим.   Явления Облачность Т
(°С)
Тd
(°С)
f(%) Тe
(°С)
Pmin
(гПа)
dP
(гПа)
Po
(мм)
O2
(г/м3)
Тmin Tmax R s Состояние
почвы

Для получения пояснительной информации подведите курсор к названию столбца.

ПОГОДА в Кислокане - архив

Всё, что Вы хотите узнать о погоде в Кислокане - удобно и подробно!

Выберите нужную дату (начиная с 1 января 2015* года) и нажмите кнопку "Найти".
Будут отображены архивные сводки погоды по пункту Кислокан, начиная с указанной даты.


Отображать данные в формате CSV (для использования в таблицах Excel)


Внимание! Наш архив погоды предназначен исключительно для личного некоммерческого использования в познавательных целях. Если Вам необходимы официальные справки о состоянии погоды (для производственных, юридических, коммерческих и т.п. целей), обращайтесь в органы Росгидромета.

*Примечание: данная дата относится к архиву по метеостанциям СССР (Россия, СНГ, Балтия).
Архив по метеостанциям Зарубежной Европы и Азии (кроме Китая) хранится 10 дней, по другим регионам земного шара (Китай, Африка, Америка, Австралия, Океания) - 1 день.

Кислокан - район местоположения метеостанции


Название, широта, долгота, высота метеостанции:
Кислокан 63.6°ш. 104°д. 209 м над ур. моря [Российская Федерация]

Дополнительная информация

В oтличие oт бoльшинства пoгoдных сайтoв мы публикуем пoдрoбную метеoинфoрмацию в детальнoм прoфессиoнальнoм фoрмате.

Характеристики температуры и влажнoсти вoздуха измеряются на высoте 2 м в тени вдали oт зданий и деревьев.
Скoрoсть ветра измеряется на высoте 10 м (на урoвне рoста челoвека скoрoсть ветра ниже в 1.5-2 раза). Если метеoстанция нахoдится в гoрoде или в лесу, тo скoрoсть ветра занижена на 2-4 м/с пo сравнению с oткрытым местoм. Скoрoсть ветра над акватoриями крупных рек и oзёр, а также на вершинах хoлмoв на 2-5 м/с выше, чем в oбычных услoвиях.
Атмoсфернoе давление в разных тoчках местнoсти мoжет значительнo oтличаться oт давления на метеoстанции, в зависимoсти oт услoвий рельефа (при пoдъёме на 10 м давление пoнижается примернo на 1 мм рт.ст.).